Visibility
15.0 15.0 15.0 15.0 15.0 15.0 15.0 15.0 15.0 15.0 15.0 15.0 15.0 15.0 15.0 15.0 15.0 15.0 15.0 15.0 15.0 15.0 15.0 15.0 15.0 15.0 2.5 0.0 10.1 15.0 15.0 15.0 15.0 15.0 15.0 15.0 15.0 15.0 15.0 15.0 15.0 15.0 15.0 15.0 15.0 15.0 15.0
6.4 14.7 13.8 15.0 15.0 13.3 15.0 15.0 11.1 15.0 15.0 15.0 15.0 15.0 15.0 15.0 15.0 15.0 15.0 15.0 15.0 15.0 15.0 15.0 15.0 10.4 0.0 0.0 15.0 15.0 15.0 15.0 15.0 15.0 15.0 15.0 15.0 15.0 15.0 15.0 15.0 15.0 15.0 15.0 15.0 15.0 15.0
13.0 6.7 7.9 15.0 14.6 15.0 15.0 15.0 6.0 7.5 15.0 15.0 15.0 15.0 15.0 15.0 15.0 15.0 15.0 15.0 15.0 15.0 15.0 15.0 11.0 0.1 0.1 0.1 15.0 15.0 15.0 15.0 15.0 15.0 15.0 15.0 15.0 15.0 15.0 15.0 15.0 15.0 15.0 15.0 15.0 15.0 15.0
5.1 5.4 8.1 15.0 12.7 15.0 15.0 15.0 15.0 15.0 15.0 15.0 15.0 15.0 15.0 15.0 15.0 15.0 15.0 15.0 15.0 15.0 15.0 14.9 12.5 0.1 0.2 15.0 15.0 15.0 15.0 15.0 15.0 15.0 15.0 15.0 15.0 15.0 15.0 15.0 15.0 15.0 15.0 15.0 15.0 15.0 15.0
9.0 10.3 12.5 15.0 11.2 15.0 15.0 15.0 15.0 15.0 15.0 15.0 15.0 15.0 15.0 15.0 15.0 15.0 15.0 15.0 15.0 15.0 15.0 15.0 0.2 0.1 0.4 15.0 15.0 15.0 15.0 15.0 15.0 15.0 15.0 15.0 15.0 15.0 15.0 15.0 15.0 15.0 2.6 15.0 15.0 15.0 15.0
13.5 15.0 15.0 15.0 15.0 15.0 15.0 15.0 15.0 15.0 15.0 15.0 15.0 15.0 15.0 15.0 15.0 15.0 15.0 15.0 15.0 15.0 15.0 15.0 6.6 0.1 9.9 15.0 15.0 15.0 15.0 10.6 15.0 15.0 15.0 10.4 15.0 5.4 14.3 10.7 0.0 10.5 0.1 15.0 15.0 15.0 15.0
15.0 15.0 15.0 15.0 15.0 15.0 15.0 15.0 15.0 15.0 15.0 15.0 15.0 15.0 15.0 15.0 15.0 15.0 15.0 15.0 15.0 13.2 12.2 15.0 0.7 14.9 15.0 15.0 15.0 15.0 15.0 14.3 12.9 11.7 11.6 14.7 0.4 0.1 10.0 15.0 15.0 15.0 15.0 15.0 15.0 15.0 15.0
15.0 15.0 15.0 15.0 15.0 15.0 15.0 15.0 15.0 15.0 15.0 15.0 15.0 15.0 15.0 15.0 15.0 15.0 15.0 15.0 3.1 4.0 0.0 15.0 15.0 15.0 15.0 15.0 15.0 15.0 14.4 0.1 0.6 0.1 10.5 0.1 0.3 15.0 15.0 15.0 15.0 15.0 15.0 15.0 15.0 15.0 15.0
15.0 15.0 15.0 15.0 15.0 15.0 15.0 15.0 15.0 15.0 15.0 15.0 15.0 15.0 15.0 15.0 15.0 15.0 15.0 15.0 15.0 15.0 0.1 8.1 15.0 15.0 15.0 15.0 15.0 15.0 15.0 15.0 4.9 0.3 13.0 9.5 3.6 7.9 12.6 15.0 15.0 15.0 12.7 15.0 15.0 15.0 15.0
15.0 15.0 15.0 15.0 15.0 15.0 15.0 15.0 15.0 15.0 15.0 15.0 15.0 15.0 15.0 15.0 15.0 15.0 15.0 9.3 15.0 15.0 0.2 15.0 15.0 15.0 15.0 15.0 15.0 15.0 15.0 14.8 15.0 4.4 2.5 6.6 15.0 15.0 15.0 6.6 15.0 15.0 15.0 15.0 15.0 15.0 15.0
15.0 15.0 15.0 15.0 15.0 15.0 15.0 15.0 15.0 15.0 15.0 15.0 15.0 15.0 15.0 15.0 15.0 15.0 15.0 15.0 15.0 10.2 0.1 15.0 15.0 15.0 15.0 15.0 15.0 15.0 15.0 7.1 6.3 15.0 6.3 2.4 2.1 4.0 4.8 3.6 13.8 15.0 14.3 14.8 14.9 14.4 13.8
15.0 15.0 15.0 15.0 15.0 15.0 15.0 15.0 15.0 15.0 15.0 15.0 15.0 15.0 15.0 15.0 15.0 15.0 15.0 15.0 14.9 0.8 0.9 15.0 15.0 11.2 3.8 12.5 15.0 15.0 15.0 15.0 15.0 8.8 12.0 14.9 15.0 11.4 2.8 2.1 3.6 3.7 10.0 5.2 12.6 8.0 0.1
15.0 15.0 15.0 15.0 15.0 15.0 15.0 15.0 15.0 15.0 15.0 15.0 15.0 15.0 15.0 15.0 15.0 15.0 15.0 15.0 1.3 2.7 15.0 15.0 7.9 10.3 15.0 13.2 7.9 3.3 5.2 14.3 10.2 0.5 0.1 15.0 15.0 15.0 11.9 10.3 3.5 5.7 1.5 0.0 0.0 0.0 0.0
15.0 15.0 15.0 15.0 15.0 15.0 15.0 15.0 15.0 15.0 15.0 15.0 15.0 15.0 15.0 15.0 15.0 15.0 15.0 15.0 0.3 15.0 15.0 15.0 15.0 15.0 15.0 15.0 15.0 14.6 15.0 0.1 5.2 4.4 2.1 0.1 1.9 15.0 15.0 12.4 9.5 14.8 8.8 0.0 0.1 0.0 10.8
15.0 15.0 15.0 15.0 15.0 15.0 15.0 15.0 15.0 15.0 15.0 15.0 15.0 15.0 15.0 15.0 15.0 15.0 15.0 0.4 15.0 15.0 15.0 2.0 8.0 14.5 15.0 3.5 0.7 0.1 7.5 0.0 0.0 0.0 0.1 0.1 0.0 13.8 1.4 14.4 10.9 7.1 7.4 6.7 2.3 0.2 0.0
15.0 15.0 15.0 15.0 15.0 15.0 15.0 15.0 15.0 15.0 15.0 15.0 15.0 15.0 15.0 15.0 15.0 15.0 2.0 1.8 14.8 15.0 15.0 15.0 7.2 12.7 15.0 15.0 10.2 1.9 0.1 0.0 0.0 0.0 0.0 0.0 0.3 0.0 0.3 9.4 9.0 1.4 7.8 0.2 0.3 0.0 0.1
15.0 15.0 15.0 15.0 15.0 15.0 15.0 15.0 15.0 15.0 15.0 15.0 15.0 15.0 12.2 15.0 15.0 8.4 1.5 1.3 10.6 15.0 15.0 15.0 15.0 15.0 15.0 15.0 15.0 2.3 2.4 0.0 14.3 6.6 10.3 0.0 0.0 0.4 8.7 0.0 0.1 0.2 0.0 0.1 0.0 0.0 0.1
15.0 15.0 15.0 15.0 15.0 15.0 15.0 15.0 15.0 15.0 15.0 15.0 15.0 15.0 15.0 15.0 14.8 11.1 15.0 7.8 2.9 9.3 15.0 15.0 15.0 15.0 15.0 15.0 15.0 15.0 15.0 0.1 15.0 15.0 2.6 1.4 0.0 12.0 15.0 14.5 15.0 14.2 0.0 0.0 0.0 0.0 0.0
15.0 15.0 15.0 15.0 15.0 15.0 15.0 15.0 15.0 15.0 15.0 15.0 15.0 15.0 11.4 15.0 15.0 13.6 15.0 15.0 15.0 6.7 3.5 7.6 5.4 15.0 15.0 1.6 0.7 4.5 13.3 3.2 15.0 9.9 15.0 14.2 0.8 12.0 14.6 9.1 7.4 2.1 0.2 0.0 0.0 0.0 0.2
15.0 15.0 15.0 15.0 15.0 15.0 15.0 15.0 15.0 15.0 15.0 15.0 10.8 13.0 15.0 7.2 15.0 8.1 9.3 7.7 14.1 15.0 15.0 15.0 0.8 12.4 12.3 15.0 14.2 5.4 15.0 1.4 15.0 15.0 15.0 11.1 0.2 0.2 0.3 0.1 0.4 0.2 1.5 0.1 0.2 0.2 0.2
15.0 15.0 15.0 15.0 15.0 15.0 15.0 15.0 15.0 15.0 15.0 15.0 8.9 9.8 14.1 8.9 14.4 12.8 14.2 1.9 12.7 15.0 15.0 15.0 11.7 0.9 0.1 2.1 13.2 15.0 4.9 7.2 10.9 12.2 13.1 12.4 0.5 9.6 10.3 15.0 15.0 15.0 2.3 15.0 12.8 11.9 9.7
15.0 15.0 15.0 15.0 15.0 15.0 15.0 15.0 15.0 15.0 15.0 15.0 0.1 6.2 15.0 15.0 15.0 15.0 13.5 2.5 0.8 8.5 15.0 15.0 15.0 15.0 0.8 0.4 0.9 0.1 0.6 4.6 1.8 15.0 15.0 14.1 1.2 6.7 15.0 15.0 14.9 3.6 15.0 15.0 14.9 15.0 15.0
15.0 15.0 15.0 15.0 15.0 15.0 15.0 15.0 15.0 15.0 15.0 15.0 14.9 13.4 5.0 14.8 15.0 12.0 2.9 1.0 1.2 6.3 15.0 15.0 12.0 12.1 8.1 2.0 15.0 15.0 15.0 15.0 15.0 15.0 15.0 15.0 15.0 15.0 15.0 13.0 15.0 15.0 15.0 15.0 15.0 15.0 15.0
15.0 15.0 15.0 15.0 15.0 15.0 15.0 15.0 15.0 15.0 15.0 15.0 15.0 12.4 0.4 14.2 15.0 15.0 12.1 7.9 9.0 15.0 15.0 15.0 15.0 10.9 15.0 15.0 15.0 15.0 15.0 15.0 15.0 15.0 15.0 15.0 15.0 15.0 15.0 15.0 15.0 15.0 15.0 15.0 15.0 15.0 15.0
15.0 15.0 15.0 15.0 15.0 15.0 15.0 15.0 15.0 15.0 15.0 14.9 10.1 12.2 0.2 2.2 15.0 15.0 15.0 14.3 14.3 11.0 9.9 15.0 15.0 15.0 15.0 15.0 15.0 14.1 15.0 15.0 15.0 15.0 15.0 15.0 14.7 13.5 3.7 15.0 15.0 15.0 6.6 15.0 15.0 15.0 15.0
15.0 15.0 15.0 15.0 15.0 15.0 15.0 15.0 15.0 15.0 15.0 15.0 15.0 12.2 0.0 0.2 11.1 15.0 12.3 12.5 14.8 8.0 5.6 7.6 15.0 15.0 15.0 10.0 14.8 14.8 15.0 15.0 15.0 15.0 15.0 14.0 14.3 9.3 15.0 2.1 14.2 0.9 15.0 15.0 15.0 15.0 15.0
15.0 15.0 15.0 15.0 15.0 15.0 15.0 15.0 15.0 15.0 15.0 15.0 15.0 7.2 11.2 0.1 15.0 15.0 15.0 1.5 9.9 9.6 9.9 9.0 8.3 15.0 9.2 9.6 8.3 10.3 2.8 15.0 12.9 15.0 10.6 10.1 5.3 11.0 15.0 3.4 15.0 11.4 15.0 15.0 14.3 5.3 15.0
15.0 15.0 15.0 15.0 15.0 15.0 15.0 15.0 15.0 15.0 15.0 15.0 15.0 14.8 8.3 2.9 15.0 15.0 14.3 15.0 15.0 11.7 1.1 10.2 9.8 9.7 10.6 0.5 0.4 0.7 4.7 2.4 13.4 15.0 14.9 12.8 3.6 0.9 1.1 2.6 1.0 15.0 15.0 4.6 1.4 14.6 15.0
15.0 15.0 15.0 15.0 15.0 15.0 15.0 15.0 15.0 15.0 15.0 15.0 15.0 15.0 15.0 5.2 15.0 15.0 15.0 15.0 15.0 9.5 13.8 15.0 6.6 9.5 1.3 0.8 2.7 9.8 2.4 2.1 0.8 2.4 15.0 4.5 12.0 15.0 15.0 0.5 5.0 15.0 13.9 15.0 15.0 15.0 15.0